Flight Track Log - Related Links

Times and Time Zones

All times are in EST time to prevent confusion due to time zone crossing. See the N7804D flight status page for this flight to view local times or setup timezone preferences in your user account.

Time Position Orientation Groundspeed Altitude Reporting Facility
EST Latitude Longitude Course Direction KTS MPH feet Rate Location/Type
Sat 11:26:15 AM 42.2372 -75.9036 24° Northeast 118 136 3,600  Level New York Center
Sat 11:27:10 AM 42.2664 -75.8831 28° Northeast 117 135 3,600  Level Boston Center
Sat 11:28:11 AM 42.2975 -75.8706 17° North 115 132 3,600 49 Level Boston Center
Sat 11:29:12 AM 42.3286 -75.8631 10° North 113 130 3,700  Climbing Boston Center
Sat 11:30:00 AM 42.4265 -75.8276 24° Northeast  Level FlightAware Approximate
Sat 11:30:13 AM 42.3606 -75.8483 19° North 117 135 3,600  Level Boston Center
Sat 11:31:00 AM 42.4644 -75.8048 24° Northeast  Level FlightAware Approximate
Sat 11:31:14 AM 42.3922 -75.8325 20° North 120 138 3,600  Level Boston Center
Sat 11:32:15 AM 42.4214 -75.8172 21° North 116 133 3,600 -49 Level Boston Center
Sat 11:33:17 AM 42.4514 -75.7972 26° Northeast 119 137 3,500  Descending Boston Center
Sat 11:34:18 AM 42.4794 -75.7797 25° Northeast 116 133 3,600 49 Climbing Boston Center
Sat 11:35:19 AM 42.5161 -75.7664 15° North 113 130 3,600 -60 Level Boston Center
Sat 11:35:58 AM 42.5350 -75.7636 North 114 131 3,500  Descending Boston Center
Sat 11:36:20 AM 42.5472 -75.7569 22° Northeast 114 131 3,600 109 Climbing Boston Center
Sat 11:36:53 AM 42.5583 -75.7506 23° Northeast 114 131 3,600 194 Level Boston Center
Sat 11:37:22 AM 42.5772 -75.7389 24° Northeast 115 132 3,800  Climbing Boston Center
Sat 11:37:59 AM 42.5969 -75.7247 28° Northeast 120 138 3,600 -98 Descending Boston Center
Sat 11:38:23 AM 42.6053 -75.7181 30° Northeast 117 135 3,700  Climbing Boston Center
Sat 11:38:54 AM 42.6231 -75.7094 20° North 120 138 3,600  Descending Boston Center
Sat 11:39:24 AM 42.6353 -75.6978 35° Northeast 118 136 3,700  Climbing Boston Center
Sat 11:39:55 AM 42.6525 -75.6867 25° Northeast 117 135 3,600  Descending Boston Center
Sat 11:40:26 AM 42.6636 -75.6778 30° Northeast 117 135 3,700  Climbing Boston Center
Sat 11:41:01 AM 42.6833 -75.6672 21° North 116 133 3,600 -98 Descending Boston Center
Sat 11:41:27 AM 42.6928 -75.6578 36° Northeast 118 136 3,600 69 Level Boston Center
Sat 11:42:28 AM 42.7206 -75.6392 26° Northeast 117 135 3,700 98 Climbing Boston Center
Sat 11:44:00 AM 42.7570 -75.5977 14° North  Level FlightAware Approximate
Sat 11:51:00 AM 42.8333 -75.5500 36° Northeast  Level FlightAware Approximate
Sat 11:52:00 AM 42.8434 -75.5612 36° Northeast  Level Estimated

Login

Don't have an account? Register now (free) for customized features, flight alerts, and more!